• Join FlightAware (Why Join?)
  • Login
  • US Flag 
08:42PM EST


 

Airport Tracker/Info


-or-


 

Live Flight TrackerFlight Track Log ✈ SWA3675 ✈ 02-Jul-2013 ✈ KEYW - KMCO

Flight Track Log - Related Links

Times and Time Zones

All times are in EDT time to prevent confusion due to time zone crossing. See the SWA3675 flight status page for this flight to view local times or setup timezone preferences in your user account.

Time Position Orientation Groundspeed Altitude Reporting Facility
EDT Latitude Longitude Course Direction KTS MPH feet Rate Location/Type
01:05PM 24.7358 -81.8569 North 317 365 11,600  Level Miami Center
01:06PM 24.8014 -81.7681 51° Northeast 327 376 15,200 3,300 Climbing Miami Center
01:07PM 24.8733 -81.6772 49° Northeast 349 402 18,200 2,800 Climbing Miami Center
01:08PM 25.2046 -81.6862 North  Level Estimated
01:08PM 24.9769 -81.6356 20° North 371 427 20,800  Level Miami Center
01:09PM 25.2978 -81.6756 North  Level Estimated
01:09PM 25.0928 -81.6103 11° North 395 455 23,000  Level Miami Center
01:10PM 25.3910 -81.6650 North  Level Estimated
01:10PM 25.2147 -81.5875 10° North 414 476 22,900  Level Miami Center
01:11PM 25.3311 -81.5964 356° North 426 490 22,900 50 Level Miami Center
01:12PM 25.4497 -81.6150 352° North 420 483 23,000 -150 Climbing Miami Center
01:13PM 25.5681 -81.6311 353° North 426 490 22,600 -550 Descending Miami Center
01:14PM 25.6950 -81.6500 352° North 426 490 21,900 -300 Descending Miami Center
01:15PM 25.8114 -81.6683 352° North 426 490 22,000 -400 Climbing Miami Center
01:16PM 25.9231 -81.6958 348° North 426 490 21,100 -950 Descending Miami Center
01:17PM 26.0367 -81.7328 344° North 416 479 20,100 -1,000 Descending Miami Center
01:18PM 26.1461 -81.7719 342° North 416 479 19,100 -900 Descending Miami Center
01:19PM 26.2347 -81.8058 341° North 416 479 18,300 -550 Descending Miami Center
01:20PM 26.3522 -81.8478 342° North 411 473 18,000 -150 Descending Miami Center
01:21PM 26.4781 -81.8925 342° North 421 484 18,000  Level Miami Center
01:22PM 26.5939 -81.9278 345° North 426 490 18,000  Level Miami Center
01:23PM 26.7153 -81.9189 North 426 490 18,000 -150 Level Miami Center
01:24PM 26.8200 -81.9072 North 421 484 17,700 -700 Descending Miami Center
01:25PM 26.9353 -81.8914 North 422 486 16,600 -1,100 Descending Miami Center
01:26PM 27.0569 -81.8708 North 404 465 15,500 -1,050 Descending Miami Center
01:27PM 27.1639 -81.8569 North 399 459 14,500 -1,000 Descending Miami Center
01:28PM 27.2708 -81.8428 North 388 447 13,500 -800 Descending Miami Center
01:29PM 27.3758 -81.8264 North 388 447 12,900 -300 Descending Miami Center
01:30PM 27.4786 -81.8097 North 383 441 12,900  Level Miami Center
01:31PM 27.5731 -81.7997 North 370 426 12,900  Level Miami Center
01:32PM 27.6778 -81.7831 North 370 426 12,900  Level Miami Center
01:33PM 27.7953 -81.7672 North 370 426 12,900 31 Level Miami Center
01:35PM 28.0333 -81.7500 North 378 435 13,000 31 Climbing Orlando TRACON
01:36PM 28.1333 -81.7333 North 383 441 13,000 -286 Level Orlando TRACON
01:37PM 28.2000 -81.6167 57° Northeast 375 432 12,400 -898 Descending Orlando TRACON
01:38PM 28.2500 -81.5333 56° Northeast 331 381 11,100 -1,333 Descending Orlando TRACON
01:39PM 28.3167 -81.4500 48° Northeast 297 342 9,600 -1,008 Descending Orlando TRACON
01:40PM 28.3833 -81.4167 24° Northeast 302 348 9,000 -887 Descending Orlando TRACON
01:41PM 28.4500 -81.4167 360° North 287 330 7,900 -1,266 Descending Orlando TRACON
01:42PM 28.5333 -81.4167 360° North 279 321 6,700 -1,789 Descending Orlando TRACON
01:43PM 28.6000 -81.4167 360° North 262 302 4,500 -1,600 Descending Orlando TRACON
01:44PM 28.6667 -81.3667 33° Northeast 235 270 3,500 -750 Descending Orlando TRACON
01:45PM 28.6333 -81.3333 139° Southeast 159 183 3,000 -381 Descending Orlando TRACON
01:46PM 28.5833 -81.3333 180° South 165 190 2,700 -524 Descending Orlando TRACON
01:47PM 28.5500 -81.3333 180° South 164 189 1,900 -737 Descending Orlando TRACON
01:48PM 28.5167 -81.3333 180° South 120 138 1,300 -650 Descending Orlando TRACON
01:49PM 28.4667 -81.3333 180° South 117 135 600 -636 Descending Orlando TRACON